If you wish to contribute or participate in the discussions about articles you are invited to join SKYbrary as a registered user

 Actions

Agen-La Garenne Airport

From SKYbrary Wiki

LFBA
Airport
ICAO: LFBA – IATA: AGF
Summary
Name Agen-La Garenne Airport
Region Europe
Territory France FR.gif
Location Agen, Aquitaine
Serving Agen
Elevation 62.179 m <br />204 ft <br />204 ft62.179 m <br />
Type medium airport
Coordinates 44° 10' 29.00" N, 0° 35' 26.00" E
Runways
Designator Length Width Surface ROPS
11/29 2165 m7,103.018 ft <br /> 30 m98.425 ft <br /> ASP /


METAR
Observation LFBA 160600Z AUTO 11003KT 0800 0450 R29/0600D FG VV/// 04/04 Q1019 TEMPO 0300 FG
Station Agen
Date/Time 16 October 2021 06:00:00
Wind direction 110°
Wind speed 03 kts
Lowest cloud amount n/a
Temperature 4°C
Dew point 4°C
Humidity 100%
QNH 1019 hPa
Weather condition n/a

Maps

Terrain

Loading map...

Airport Layout

Loading map...


Accidents & Serious Incidents at or in vicinity of LFBA

None on SKYbrary